Location: ?????
(31.8092°N, 35.2590°E)
Time: 03:30:12
(UTC+00:00)

Cosmos 2360 Rocket - Pass Details

Date: 24 October 2021
Orbit: 832 x 846 km, 71.0° (Epoch: 07 December)

Event Time Altitude Azimuth Distance (km) Brightness Sun altitude
Rises 01:42:48 0° 350° (N) 3,409 5.3 -27.4°
Reaches altitude 10° 01:45:31 10° 1° (N) 2,471 4.6 -26.8°
Maximum altitude 01:50:34 33° 64° (ENE) 1,401 3.8 -25.8°
Drops below altitude 10° 01:55:36 10° 127° (SE) 2,458 5.3 -24.7°
Sets 01:58:16 0° 137° (SE) 3,389 5.9 -24.1°
